Time,TemperatureF,DewpointF,PressureIn,WindDirection,WindDirectionDegrees,WindSpeedMPH,WindSpeedGustMPH,Humidity,HourlyPrecipIn,Conditions,Clouds,dailyrainin,SoftwareType,DateUTC
2013-06-25 00:01:00,56.0,53.0,-100.00,South,178,6.0,8.0,89,0.00,,,0.01,,2013-06-25 06:01:00,
2013-06-25 00:21:00,55.0,53.0,-100.00,South,171,8.0,12.0,91,0.00,,,0.01,,2013-06-25 06:21:00,
2013-06-25 00:33:00,55.0,53.0,-100.00,SSE,160,9.0,11.0,93,0.00,,,0.01,,2013-06-25 06:33:00,
2013-06-25 00:43:00,55.0,53.0,-100.00,South,169,7.0,11.0,94,0.00,,,0.01,,2013-06-25 06:43:00,
2013-06-25 00:52:00,55.0,53.0,-100.00,South,169,7.0,11.0,94,0.00,,,0.01,,2013-06-25 06:52:00,
2013-06-25 01:02:00,55.0,53.0,-100.00,South,175,5.0,8.0,94,0.00,,,0.01,,2013-06-25 07:02:00,
2013-06-25 01:22:00,55.0,53.0,-100.00,South,175,4.0,6.0,94,0.00,,,0.01,,2013-06-25 07:22:00,
2013-06-25 01:33:00,55.0,53.0,-100.00,South,175,4.0,6.0,94,0.00,,,0.01,,2013-06-25 07:33:00,
2013-06-25 01:43:00,55.0,53.0,-100.00,South,186,5.0,8.0,94,0.00,,,0.01,,2013-06-25 07:43:00,
2013-06-25 02:01:00,55.0,53.0,-100.00,South,186,4.0,6.0,93,0.00,,,0.01,,2013-06-25 08:01:00,
2013-06-25 02:21:00,54.0,52.0,-100.00,South,178,4.0,5.0,93,0.00,,,0.01,,2013-06-25 08:21:00,
2013-06-25 02:33:00,53.0,52.0,-100.00,SSE,157,6.0,7.0,94,0.00,,,0.01,,2013-06-25 08:33:00,
2013-06-25 03:01:00,53.0,51.0,-100.00,South,175,4.0,7.0,95,0.00,,,0.01,,2013-06-25 09:01:00,
2013-06-25 03:12:00,52.0,51.0,-100.00,South,176,4.0,5.0,95,0.00,,,0.01,,2013-06-25 09:12:00,
2013-06-25 03:21:00,52.0,51.0,-100.00,South,176,4.0,5.0,95,0.00,,,0.01,,2013-06-25 09:21:00,
2013-06-25 04:01:00,51.0,49.0,-100.00,South,182,2.0,4.0,94,0.00,,,0.01,,2013-06-25 10:01:00,
2013-06-25 04:21:00,52.0,50.0,-100.00,SSW,193,2.0,4.0,94,0.00,,,0.01,,2013-06-25 10:21:00,
2013-06-25 04:33:00,52.0,51.0,-100.00,South,175,2.0,4.0,94,0.00,,,0.01,,2013-06-25 10:33:00,
2013-06-25 04:43:00,52.0,50.0,-100.00,SSW,203,1.0,2.0,94,0.00,,,0.01,,2013-06-25 10:43:00,
2013-06-25 04:52:00,52.0,50.0,-100.00,SSW,203,1.0,2.0,94,0.00,,,0.01,,2013-06-25 10:52:00,
2013-06-25 05:01:00,51.0,50.0,-100.00,South,188,2.0,4.0,95,0.00,,,0.01,,2013-06-25 11:01:00,
2013-06-25 05:11:00,51.0,49.0,-100.00,SSW,192,3.0,5.0,95,0.00,,,0.01,,2013-06-25 11:11:00,
2013-06-25 05:22:00,51.0,49.0,-100.00,SSW,192,3.0,5.0,95,0.00,,,0.01,,2013-06-25 11:22:00,
2013-06-25 05:34:00,51.0,49.0,-100.00,SSW,192,3.0,5.0,95,0.00,,,0.01,,2013-06-25 11:34:00,
2013-06-25 05:43:00,51.0,49.0,-100.00,South,188,3.0,5.0,94,0.00,,,0.01,,2013-06-25 11:43:00,
2013-06-25 06:01:00,50.0,48.0,-100.00,SSW,199,4.0,6.0,95,0.00,,,0.01,,2013-06-25 12:01:00,
2013-06-25 06:11:00,50.0,48.0,-100.00,SSW,199,4.0,6.0,95,0.00,,,0.01,,2013-06-25 12:11:00,
2013-06-25 06:22:00,48.0,47.0,-100.00,SW,227,6.0,7.0,95,0.00,,,0.01,,2013-06-25 12:22:00,
2013-06-25 06:43:00,47.0,46.0,-100.00,WSW,256,3.0,4.0,96,0.00,,,0.01,,2013-06-25 12:43:00,
2013-06-25 07:01:00,47.0,46.0,-100.00,WSW,257,3.0,4.0,96,0.00,,,0.01,,2013-06-25 13:01:00,
2013-06-25 07:22:00,49.0,47.0,-100.00,SW,236,5.0,6.0,96,0.00,,,0.01,,2013-06-25 13:22:00,
2013-06-25 07:34:00,50.0,48.0,-100.00,SW,229,7.0,9.0,94,0.00,,,0.01,,2013-06-25 13:34:00,
2013-06-25 07:53:00,51.0,49.0,-100.00,SSW,210,3.0,5.0,93,0.00,,,0.01,,2013-06-25 13:53:00,
2013-06-25 08:11:00,53.0,50.0,-100.00,SSW,208,4.0,6.0,91,0.00,,,0.01,,2013-06-25 14:11:00,
2013-06-25 08:22:00,55.0,51.0,-100.00,South,186,5.0,7.0,86,0.00,,,0.01,,2013-06-25 14:22:00,
2013-06-25 08:34:00,55.0,51.0,-100.00,South,186,5.0,7.0,86,0.00,,,0.01,,2013-06-25 14:34:00,
2013-06-25 09:01:00,59.0,51.0,-100.00,SSE,162,10.0,13.0,75,0.00,,,0.01,,2013-06-25 15:01:00,
2013-06-25 09:22:00,61.0,52.0,-100.00,South,174,6.0,10.0,71,0.00,,,0.01,,2013-06-25 15:22:00,
2013-06-25 10:03:00,62.0,51.0,-100.00,South,172,10.0,15.0,67,0.00,,,0.01,,2013-06-25 16:03:00,
2013-06-25 10:23:00,64.0,49.0,-100.00,South,174,7.0,14.0,58,0.00,,,0.01,,2013-06-25 16:23:00,
2013-06-25 10:34:00,64.0,49.0,-100.00,SSW,195,9.0,12.0,58,0.00,,,0.01,,2013-06-25 16:34:00,
2013-06-25 10:44:00,64.0,49.0,-100.00,SSE,167,12.0,15.0,59,0.00,,,0.01,,2013-06-25 16:44:00,
2013-06-25 10:52:00,64.0,49.0,-100.00,SSE,167,12.0,15.0,59,0.00,,,0.01,,2013-06-25 16:52:00,
2013-06-25 11:01:00,64.0,49.0,-100.00,SSE,167,12.0,15.0,59,0.00,,,0.01,,2013-06-25 17:01:00,
2013-06-25 11:11:00,64.0,49.0,-100.00,SSE,167,12.0,15.0,59,0.00,,,0.01,,2013-06-25 17:11:00,
2013-06-25 11:22:00,65.0,47.0,-100.00,SSW,203,9.0,12.0,52,0.00,,,0.01,,2013-06-25 17:22:00,
2013-06-25 11:44:00,67.0,47.0,-100.00,South,182,8.0,11.0,48,0.00,,,0.01,,2013-06-25 17:44:00,
2013-06-25 11:53:00,67.0,47.0,-100.00,South,182,8.0,11.0,48,0.00,,,0.01,,2013-06-25 17:53:00,
2013-06-25 12:02:00,66.0,48.0,-100.00,SSW,195,8.0,11.0,51,0.00,,,0.01,,2013-06-25 18:02:00,
2013-06-25 12:12:00,66.0,48.0,-100.00,SSW,195,8.0,11.0,51,0.00,,,0.01,,2013-06-25 18:12:00,
2013-06-25 12:22:00,66.0,48.0,-100.00,SSW,195,8.0,11.0,51,0.00,,,0.01,,2013-06-25 18:22:00,
2013-06-25 12:34:00,67.0,49.0,-100.00,SSW,212,7.0,9.0,52,0.00,,,0.01,,2013-06-25 18:34:00,
2013-06-25 12:44:00,70.0,49.0,-100.00,South,178,9.0,11.0,48,0.00,,,0.01,,2013-06-25 18:44:00,
2013-06-25 13:01:00,69.0,47.0,-100.00,South,189,9.0,14.0,46,0.00,,,0.01,,2013-06-25 19:01:00,
2013-06-25 13:22:00,70.0,49.0,-100.00,SSE,160,9.0,12.0,47,0.00,,,0.01,,2013-06-25 19:22:00,
2013-06-25 13:44:00,71.0,48.0,-100.00,South,171,10.0,15.0,45,0.00,,,0.01,,2013-06-25 19:44:00,
2013-06-25 14:01:00,71.0,48.0,-100.00,South,185,12.0,16.0,43,0.00,,,0.01,,2013-06-25 20:01:00,
2013-06-25 14:11:00,71.0,48.0,-100.00,South,185,12.0,16.0,43,0.00,,,0.01,,2013-06-25 20:11:00,
2013-06-25 14:33:00,71.0,49.0,-100.00,South,181,9.0,13.0,46,0.00,,,0.01,,2013-06-25 20:33:00,
2013-06-25 14:52:00,72.0,49.0,-100.00,SSW,206,12.0,15.0,43,0.00,,,0.01,,2013-06-25 20:52:00,
2013-06-25 15:01:00,74.0,47.0,-100.00,South,182,15.0,19.0,38,0.00,,,0.01,,2013-06-25 21:01:00,
2013-06-25 15:11:00,74.0,47.0,-100.00,South,182,15.0,19.0,38,0.00,,,0.01,,2013-06-25 21:11:00,
2013-06-25 15:22:00,74.0,47.0,-100.00,South,182,15.0,19.0,38,0.00,,,0.01,,2013-06-25 21:22:00,
2013-06-25 15:33:00,73.0,49.0,-100.00,South,189,11.0,15.0,42,0.00,,,0.01,,2013-06-25 21:33:00,
2013-06-25 15:43:00,73.0,49.0,-100.00,South,189,11.0,15.0,42,0.00,,,0.01,,2013-06-25 21:43:00,
2013-06-25 15:53:00,73.0,49.0,-100.00,South,189,11.0,15.0,42,0.00,,,0.01,,2013-06-25 21:53:00,
2013-06-25 16:01:00,71.0,50.0,-100.00,South,181,7.0,12.0,47,0.00,,,0.01,,2013-06-25 22:01:00,
2013-06-25 16:11:00,71.0,52.0,-100.00,SSE,162,9.0,11.0,51,0.00,,,0.01,,2013-06-25 22:11:00,
2013-06-25 16:22:00,71.0,52.0,-100.00,SSE,162,9.0,11.0,51,0.00,,,0.01,,2013-06-25 22:22:00,
2013-06-25 16:33:00,75.0,49.0,-100.00,South,178,7.0,11.0,40,0.00,,,0.01,,2013-06-25 22:33:00,
2013-06-25 16:42:00,74.0,48.0,-100.00,South,185,8.0,12.0,41,0.00,,,0.01,,2013-06-25 22:42:00,
2013-06-25 16:52:00,74.0,48.0,-100.00,South,185,8.0,12.0,41,0.00,,,0.01,,2013-06-25 22:52:00,
2013-06-25 17:01:00,73.0,50.0,-100.00,South,181,6.0,10.0,43,0.00,,,0.01,,2013-06-25 23:01:00,
2013-06-25 17:11:00,73.0,50.0,-100.00,South,181,6.0,10.0,43,0.00,,,0.01,,2013-06-25 23:11:00,
2013-06-25 17:22:00,72.0,50.0,-100.00,SSW,202,6.0,9.0,46,0.00,,,0.01,,2013-06-25 23:22:00,
2013-06-25 17:34:00,69.0,53.0,-100.00,WSW,258,17.0,24.0,56,0.00,,,0.00,,2013-06-25 23:34:00,
2013-06-25 19:33:00,68.0,53.0,-100.00,NW,326,4.0,6.0,59,0.00,,,0.01,,2013-06-26 01:33:00,
2013-06-25 19:43:00,68.0,52.0,-100.00,NNW,337,4.0,6.0,57,0.00,,,0.01,,2013-06-26 01:43:00,
2013-06-25 19:53:00,68.0,52.0,-100.00,NNW,337,4.0,6.0,57,0.00,,,0.01,,2013-06-26 01:53:00,
2013-06-25 20:01:00,68.0,51.0,-100.00,West,263,2.0,5.0,54,0.00,,,0.01,,2013-06-26 02:01:00,
2013-06-25 20:11:00,68.0,51.0,-100.00,West,263,2.0,5.0,54,0.00,,,0.01,,2013-06-26 02:11:00,
2013-06-25 20:22:00,69.0,49.0,-100.00,West,270,6.0,8.0,49,0.00,,,0.01,,2013-06-26 02:22:00,
2013-06-25 20:34:00,68.0,52.0,-100.00,SSW,195,3.0,4.0,57,0.00,,,0.01,,2013-06-26 02:34:00,
2013-06-25 20:43:00,67.0,49.0,-100.00,West,271,8.0,9.0,53,0.00,,,0.01,,2013-06-26 02:43:00,
2013-06-25 20:53:00,67.0,49.0,-100.00,West,271,8.0,9.0,53,0.00,,,0.01,,2013-06-26 02:53:00,
2013-06-25 21:01:00,66.0,53.0,-100.00,SSE,165,5.0,6.0,62,0.00,,,0.01,,2013-06-26 03:01:00,
2013-06-25 21:11:00,65.0,52.0,-100.00,ESE,117,7.0,8.0,62,0.00,,,0.01,,2013-06-26 03:11:00,
2013-06-25 21:22:00,65.0,52.0,-100.00,ESE,117,7.0,8.0,62,0.00,,,0.01,,2013-06-26 03:22:00,
2013-06-25 21:33:00,63.0,53.0,-100.00,East,89,2.0,3.0,68,0.00,,,0.01,,2013-06-26 03:33:00,
2013-06-25 21:43:00,62.0,53.0,-100.00,ESE,120,5.0,6.0,75,0.00,,,0.01,,2013-06-26 03:43:00,
2013-06-25 21:52:00,62.0,53.0,-100.00,ESE,120,5.0,6.0,75,0.00,,,0.01,,2013-06-26 03:52:00,
2013-06-25 22:01:00,61.0,54.0,-100.00,WSW,253,2.0,2.0,78,0.00,,,0.01,,2013-06-26 04:01:00,
2013-06-25 22:12:00,59.0,53.0,-100.00,WNW,294,6.0,8.0,78,0.00,,,0.01,,2013-06-26 04:12:00,
2013-06-25 22:22:00,59.0,53.0,-100.00,WNW,294,6.0,8.0,78,0.00,,,0.01,,2013-06-26 04:22:00,
2013-06-25 22:33:00,59.0,52.0,-100.00,WNW,291,0.0,0.0,76,0.00,,,0.01,,2013-06-26 04:33:00,
2013-06-25 22:43:00,60.0,53.0,-100.00,North,8,1.0,2.0,76,0.00,,,0.01,,2013-06-26 04:43:00,
2013-06-25 22:53:00,60.0,53.0,-100.00,North,8,1.0,2.0,76,0.00,,,0.01,,2013-06-26 04:53:00,
2013-06-25 23:02:00,60.0,51.0,-100.00,WSW,253,2.0,3.0,72,0.00,,,0.01,,2013-06-26 05:02:00,
2013-06-25 23:11:00,59.0,52.0,-100.00,SW,215,1.0,2.0,77,0.00,,,0.01,,2013-06-26 05:11:00,
2013-06-25 23:33:00,57.0,51.0,-100.00,NW,306,1.0,2.0,79,0.00,,,0.01,,2013-06-26 05:33:00,
2013-06-25 23:43:00,56.0,50.0,-100.00,West,272,2.0,4.0,81,0.00,,,0.01,,2013-06-26 05:43:00,
2013-06-25 23:52:00,56.0,50.0,-100.00,West,272,2.0,4.0,81,0.00,,,0.01,,2013-06-26 05:52:00,